Time,TemperatureF,DewpointF,PressureIn,WindDirection,WindDirectionDegrees,WindSpeedMPH,WindSpeedGustMPH,Humidity,HourlyPrecipIn,Conditions,Clouds,dailyrainin,SoftwareType,DateUTC
2013-04-29 00:02:00,51.9,49.9,29.93,WSW,244,4.0,4.0,93,0.00,,,0.00,Wunderground v.1.15,2013-04-29 05:02:00,
2013-04-29 00:08:00,51.7,49.7,29.93,WSW,244,4.0,4.0,93,0.00,,,0.00,Wunderground v.1.15,2013-04-29 05:08:00,
2013-04-29 00:14:00,51.4,49.2,29.93,SW,236,5.0,5.0,92,0.00,,,0.00,Wunderground v.1.15,2013-04-29 05:14:00,
2013-04-29 00:20:00,51.1,49.1,29.93,WSW,240,5.0,5.0,93,0.00,,,0.00,Wunderground v.1.15,2013-04-29 05:20:00,
2013-04-29 00:26:00,50.9,48.9,29.93,SW,233,4.0,5.0,93,0.00,,,0.00,Wunderground v.1.15,2013-04-29 05:26:00,
2013-04-29 00:31:00,50.7,48.7,29.93,West,279,3.0,4.0,93,0.00,,,0.00,Wunderground v.1.15,2013-04-29 05:31:00,
2013-04-29 00:37:00,50.5,48.6,29.93,SW,233,5.0,5.0,93,0.00,,,0.00,Wunderground v.1.15,2013-04-29 05:37:00,
2013-04-29 00:43:00,50.2,48.3,29.93,SW,233,4.0,5.0,93,0.00,,,0.00,Wunderground v.1.15,2013-04-29 05:43:00,
2013-04-29 00:49:00,50.0,48.1,29.94,SW,232,4.0,5.0,93,0.00,,,0.00,Wunderground v.1.15,2013-04-29 05:49:00,
2013-04-29 00:54:00,49.8,47.9,29.93,SW,232,3.0,4.0,93,0.00,,,0.00,Wunderground v.1.15,2013-04-29 05:54:00,
2013-04-29 01:00:00,49.7,48.0,29.94,West,279,3.0,3.0,94,0.00,,,0.00,Wunderground v.1.15,2013-04-29 06:00:00,
2013-04-29 01:06:00,49.5,47.6,29.94,SW,232,3.0,4.0,93,0.00,,,0.00,Wunderground v.1.15,2013-04-29 06:06:00,
2013-04-29 01:12:00,49.4,47.7,29.93,West,279,2.0,3.0,94,0.00,,,0.00,Wunderground v.1.15,2013-04-29 06:12:00,
2013-04-29 01:17:00,49.3,47.6,29.93,SW,230,3.0,4.0,94,0.00,,,0.00,Wunderground v.1.15,2013-04-29 06:17:00,
2013-04-29 01:23:00,49.2,47.5,29.93,SW,230,3.0,3.0,94,0.00,,,0.00,Wunderground v.1.15,2013-04-29 06:23:00,
2013-04-29 01:29:00,49.2,47.5,29.94,SSW,208,4.0,4.0,94,0.00,,,0.00,Wunderground v.1.15,2013-04-29 06:29:00,
2013-04-29 01:35:00,49.2,47.5,29.93,SSE,165,5.0,5.0,94,0.00,,,0.00,Wunderground v.1.15,2013-04-29 06:35:00,
2013-04-29 01:40:00,49.2,47.8,29.93,SSE,148,5.0,5.0,95,0.00,,,0.00,Wunderground v.1.15,2013-04-29 06:40:00,
2013-04-29 01:46:00,49.1,47.7,29.94,SE,135,6.0,6.0,95,0.00,,,0.00,Wunderground v.1.15,2013-04-29 06:46:00,
2013-04-29 01:52:00,49.0,47.6,29.94,SE,125,5.0,6.0,95,0.00,,,0.00,Wunderground v.1.15,2013-04-29 06:52:00,
2013-04-29 01:58:00,48.9,47.2,29.93,SE,126,7.0,8.0,94,0.00,,,0.00,Wunderground v.1.15,2013-04-29 06:58:00,
2013-04-29 02:03:00,48.7,47.1,29.94,SE,130,7.0,8.0,94,0.00,,,0.00,Wunderground v.1.15,2013-04-29 07:03:00,
2013-04-29 02:08:00,48.6,47.0,29.94,West,279,9.0,10.0,94,0.00,,,0.00,Wunderground v.1.15,2013-04-29 07:08:00,
2013-04-29 02:13:00,48.5,46.9,29.94,SE,129,10.0,10.0,94,0.00,,,0.00,Wunderground v.1.15,2013-04-29 07:13:00,
2013-04-29 02:18:00,48.5,47.1,29.94,SE,126,10.0,11.0,95,0.00,,,0.00,Wunderground v.1.15,2013-04-29 07:18:00,
2013-04-29 02:23:00,48.4,47.0,29.93,SE,126,11.0,11.0,95,0.00,,,0.00,Wunderground v.1.15,2013-04-29 07:23:00,
2013-04-29 02:28:00,48.3,46.9,29.93,SE,124,10.0,12.0,95,0.00,,,0.00,Wunderground v.1.15,2013-04-29 07:28:00,
2013-04-29 02:33:00,48.2,46.8,29.93,SE,129,11.0,12.0,95,0.00,,,0.00,Wunderground v.1.15,2013-04-29 07:33:00,
2013-04-29 02:38:00,48.1,46.7,29.93,West,279,11.0,13.0,95,0.00,,,0.00,Wunderground v.1.15,2013-04-29 07:38:00,
2013-04-29 02:43:00,48.2,46.8,29.93,West,279,13.0,13.0,95,0.00,,,0.00,Wunderground v.1.15,2013-04-29 07:43:00,
2013-04-29 02:48:00,48.4,47.3,29.94,SE,128,12.0,13.0,96,0.00,,,0.00,Wunderground v.1.15,2013-04-29 07:48:00,
2013-04-29 02:53:00,48.5,47.4,29.94,SE,130,10.0,12.0,96,0.00,,,0.00,Wunderground v.1.15,2013-04-29 07:53:00,
2013-04-29 02:58:00,48.6,47.5,29.94,SE,129,12.0,12.0,96,0.00,,,0.00,Wunderground v.1.15,2013-04-29 07:58:00,
2013-04-29 03:03:00,48.5,47.1,29.94,SE,134,11.0,12.0,95,0.00,,,0.00,Wunderground v.1.15,2013-04-29 08:03:00,
2013-04-29 03:08:00,48.5,47.1,29.94,SE,137,13.0,14.0,95,0.00,,,0.00,Wunderground v.1.15,2013-04-29 08:08:00,
2013-04-29 03:13:00,48.5,47.1,29.94,West,279,12.0,14.0,95,0.00,,,0.00,Wunderground v.1.15,2013-04-29 08:13:00,
2013-04-29 03:18:00,48.7,47.6,29.94,SE,138,13.0,14.0,96,0.00,,,0.00,Wunderground v.1.15,2013-04-29 08:18:00,
2013-04-29 03:23:00,48.6,47.2,29.94,SE,138,12.0,13.0,95,0.00,,,0.00,Wunderground v.1.15,2013-04-29 08:23:00,
2013-04-29 03:28:00,48.5,47.1,29.94,SE,136,12.0,13.0,95,0.00,,,0.00,Wunderground v.1.15,2013-04-29 08:28:00,
2013-04-29 03:33:00,48.5,47.1,29.95,West,279,14.0,14.0,95,0.00,,,0.00,Wunderground v.1.15,2013-04-29 08:33:00,
2013-04-29 03:38:00,48.6,47.5,29.95,SE,132,17.0,17.0,96,0.00,,,0.00,Wunderground v.1.15,2013-04-29 08:38:00,
2013-04-29 03:43:00,49.0,47.9,29.95,SE,132,17.0,18.0,96,0.00,,,0.00,Wunderground v.1.15,2013-04-29 08:43:00,
2013-04-29 03:48:00,49.4,48.3,29.95,SE,134,18.0,18.0,96,0.00,,,0.00,Wunderground v.1.15,2013-04-29 08:48:00,
2013-04-29 03:53:00,49.7,48.6,29.94,SE,137,16.0,18.0,96,0.00,,,0.00,Wunderground v.1.15,2013-04-29 08:53:00,
2013-04-29 03:58:00,50.0,48.9,29.95,SE,136,15.0,18.0,96,0.00,,,0.00,Wunderground v.1.15,2013-04-29 08:58:00,
2013-04-29 04:03:00,50.2,49.1,29.95,SE,136,15.0,17.0,96,0.00,,,0.00,Wunderground v.1.15,2013-04-29 09:03:00,
2013-04-29 04:08:00,50.3,49.2,29.95,SE,135,17.0,17.0,96,0.00,,,0.00,Wunderground v.1.15,2013-04-29 09:08:00,
2013-04-29 04:13:00,50.4,49.3,29.95,West,279,16.0,17.0,96,0.00,,,0.00,Wunderground v.1.15,2013-04-29 09:13:00,
2013-04-29 04:18:00,50.5,49.4,29.95,West,279,16.0,17.0,96,0.00,,,0.00,Wunderground v.1.15,2013-04-29 09:18:00,
2013-04-29 04:23:00,50.6,49.5,29.95,SE,135,16.0,17.0,96,0.00,,,0.00,Wunderground v.1.15,2013-04-29 09:23:00,
2013-04-29 04:28:00,50.7,49.6,29.95,West,279,16.0,17.0,96,0.00,,,0.00,Wunderground v.1.15,2013-04-29 09:28:00,
2013-04-29 04:33:00,50.8,49.7,29.95,SE,138,15.0,16.0,96,0.00,,,0.00,Wunderground v.1.15,2013-04-29 09:33:00,
2013-04-29 04:38:00,50.6,49.5,29.95,SE,140,15.0,16.0,96,0.00,,,0.00,Wunderground v.1.15,2013-04-29 09:38:00,
2013-04-29 04:43:00,50.5,49.4,29.95,SE,142,14.0,15.0,96,0.00,,,0.00,Wunderground v.1.15,2013-04-29 09:43:00,
2013-04-29 04:48:00,50.4,49.3,29.95,West,279,14.0,15.0,96,0.00,,,0.00,Wunderground v.1.15,2013-04-29 09:48:00,
2013-04-29 04:53:00,50.2,49.1,29.95,SE,143,15.0,15.0,96,0.00,,,0.00,Wunderground v.1.15,2013-04-29 09:53:00,
2013-04-29 04:58:00,50.0,48.6,29.95,West,279,14.0,15.0,95,0.00,,,0.00,Wunderground v.1.15,2013-04-29 09:58:00,
2013-04-29 05:03:00,49.7,48.3,29.96,SE,144,15.0,15.0,95,0.00,,,0.00,Wunderground v.1.15,2013-04-29 10:03:00,
2013-04-29 05:08:00,49.6,48.5,29.96,SE,142,15.0,16.0,96,0.00,,,0.00,Wunderground v.1.15,2013-04-29 10:08:00,
2013-04-29 05:13:00,49.5,48.4,29.96,SE,143,14.0,15.0,96,0.00,,,0.00,Wunderground v.1.15,2013-04-29 10:13:00,
2013-04-29 05:18:00,49.4,48.0,29.96,SE,142,15.0,16.0,95,0.00,,,0.00,Wunderground v.1.15,2013-04-29 10:18:00,
2013-04-29 05:23:00,49.4,48.0,29.96,SE,140,16.0,16.0,95,0.00,,,0.00,Wunderground v.1.15,2013-04-29 10:23:00,
2013-04-29 05:28:00,49.4,48.3,29.96,SE,143,15.0,16.0,96,0.00,,,0.00,Wunderground v.1.15,2013-04-29 10:28:00,
2013-04-29 05:33:00,49.4,48.3,29.97,SE,144,16.0,16.0,96,0.00,,,0.00,Wunderground v.1.15,2013-04-29 10:33:00,
2013-04-29 05:38:00,49.5,48.4,29.97,SE,144,16.0,16.0,96,0.00,,,0.00,Wunderground v.1.15,2013-04-29 10:38:00,
2013-04-29 05:43:00,49.6,48.5,29.97,SE,143,16.0,16.0,96,0.00,,,0.00,Wunderground v.1.15,2013-04-29 10:43:00,
2013-04-29 05:48:00,49.7,48.6,29.96,SE,144,17.0,18.0,96,0.00,,,0.00,Wunderground v.1.15,2013-04-29 10:48:00,
2013-04-29 05:53:00,49.7,48.6,29.96,SE,144,16.0,18.0,96,0.00,,,0.00,Wunderground v.1.15,2013-04-29 10:53:00,
2013-04-29 05:58:00,49.8,48.7,29.97,SE,144,18.0,18.0,96,0.00,,,0.00,Wunderground v.1.15,2013-04-29 10:58:00,
2013-04-29 06:03:00,49.8,48.7,29.98,SE,142,19.0,19.0,96,0.00,,,0.00,Wunderground v.1.15,2013-04-29 11:03:00,
2013-04-29 06:08:00,49.8,48.7,29.98,SE,145,17.0,19.0,96,0.00,,,0.00,Wunderground v.1.15,2013-04-29 11:08:00,
2013-04-29 06:13:00,49.8,48.7,29.97,SSE,148,17.0,18.0,96,0.00,,,0.00,Wunderground v.1.15,2013-04-29 11:13:00,
2013-04-29 06:18:00,49.8,48.7,29.98,West,279,18.0,19.0,96,0.00,,,0.00,Wunderground v.1.15,2013-04-29 11:18:00,
2013-04-29 06:23:00,49.7,48.6,29.98,SSE,147,17.0,18.0,96,0.00,,,0.00,Wunderground v.1.15,2013-04-29 11:23:00,
2013-04-29 06:28:00,49.7,48.6,29.97,West,279,16.0,18.0,96,0.00,,,0.00,Wunderground v.1.15,2013-04-29 11:28:00,
2013-04-29 06:33:00,49.7,48.6,29.98,West,279,16.0,18.0,96,0.00,,,0.00,Wunderground v.1.15,2013-04-29 11:33:00,
2013-04-29 06:38:00,49.8,48.7,29.98,SSE,149,17.0,18.0,96,0.00,,,0.00,Wunderground v.1.15,2013-04-29 11:38:00,
2013-04-29 06:43:00,49.9,48.8,29.98,SSE,147,17.0,17.0,96,0.00,,,0.00,Wunderground v.1.15,2013-04-29 11:43:00,
2013-04-29 06:48:00,50.0,48.9,29.98,West,279,17.0,18.0,96,0.00,,,0.00,Wunderground v.1.15,2013-04-29 11:48:00,
2013-04-29 06:53:00,50.3,49.2,29.98,SSE,147,16.0,18.0,96,0.00,,,0.00,Wunderground v.1.15,2013-04-29 11:53:00,
2013-04-29 06:58:00,50.5,49.4,29.98,SSE,147,16.0,18.0,96,0.00,,,0.00,Wunderground v.1.15,2013-04-29 11:58:00,
2013-04-29 07:03:00,50.7,49.6,29.98,SE,142,16.0,17.0,96,0.00,,,0.00,Wunderground v.1.15,2013-04-29 12:03:00,
2013-04-29 07:08:00,51.0,49.9,29.98,SE,143,16.0,18.0,96,0.00,,,0.00,Wunderground v.1.15,2013-04-29 12:08:00,
2013-04-29 07:13:00,51.4,50.3,29.98,SE,146,15.0,17.0,96,0.00,,,0.00,Wunderground v.1.15,2013-04-29 12:13:00,
2013-04-29 07:18:00,51.9,50.8,29.98,SE,145,15.0,17.0,96,0.00,,,0.00,Wunderground v.1.15,2013-04-29 12:18:00,
2013-04-29 07:23:00,52.4,51.3,29.99,SSE,148,14.0,15.0,96,0.00,,,0.00,Wunderground v.1.15,2013-04-29 12:23:00,
2013-04-29 07:28:00,53.0,51.9,29.98,SSE,147,13.0,15.0,96,0.00,,,0.00,Wunderground v.1.15,2013-04-29 12:28:00,
2013-04-29 07:33:00,53.4,52.3,29.99,SSE,150,14.0,14.0,96,0.00,,,0.00,Wunderground v.1.15,2013-04-29 12:33:00,
2013-04-29 07:38:00,53.8,52.7,29.99,West,279,11.0,14.0,96,0.00,,,0.00,Wunderground v.1.15,2013-04-29 12:38:00,
2013-04-29 07:43:00,54.2,53.1,29.99,West,279,10.0,14.0,96,0.00,,,0.00,Wunderground v.1.15,2013-04-29 12:43:00,
2013-04-29 07:48:00,54.8,53.7,29.99,SE,145,10.0,14.0,96,0.00,,,0.00,Wunderground v.1.15,2013-04-29 12:48:00,
2013-04-29 07:53:00,55.3,54.2,29.98,SE,134,10.0,12.0,96,0.00,,,0.00,Wunderground v.1.15,2013-04-29 12:53:00,
2013-04-29 07:58:00,56.0,54.6,29.98,West,279,7.0,12.0,95,0.00,,,0.00,Wunderground v.1.15,2013-04-29 12:58:00,
2013-04-29 08:03:00,56.7,54.4,29.98,SE,130,11.0,12.0,92,0.00,,,0.00,Wunderground v.1.15,2013-04-29 13:03:00,
2013-04-29 08:08:00,57.2,54.9,29.99,SE,126,10.0,12.0,92,0.00,,,0.00,Wunderground v.1.15,2013-04-29 13:08:00,
2013-04-29 08:13:00,57.7,54.8,29.99,SE,130,4.0,11.0,90,0.00,,,0.00,Wunderground v.1.15,2013-04-29 13:13:00,
2013-04-29 08:18:00,58.5,55.3,29.99,SE,134,6.0,11.0,89,0.00,,,0.00,Wunderground v.1.15,2013-04-29 13:18:00,
2013-04-29 08:23:00,59.2,55.3,29.99,SE,144,7.0,11.0,87,0.00,,,0.00,Wunderground v.1.15,2013-04-29 13:23:00,
2013-04-29 08:28:00,59.9,56.0,29.99,SE,132,5.0,11.0,87,0.00,,,0.00,Wunderground v.1.15,2013-04-29 13:28:00,
2013-04-29 08:34:00,60.6,56.1,29.99,SE,132,4.0,7.0,85,0.00,,,0.00,Wunderground v.1.15,2013-04-29 13:34:00,
2013-04-29 08:39:00,61.2,56.7,29.99,SE,138,2.0,10.0,85,0.00,,,0.00,Wunderground v.1.15,2013-04-29 13:39:00,
2013-04-29 08:44:00,61.5,56.6,29.99,SE,137,5.0,6.0,84,0.00,,,0.00,Wunderground v.1.15,2013-04-29 13:44:00,
2013-04-29 08:49:00,61.7,56.5,29.99,West,279,6.0,10.0,83,0.00,,,0.00,Wunderground v.1.15,2013-04-29 13:49:00,
2013-04-29 08:54:00,62.1,56.2,29.99,West,279,9.0,10.0,81,0.00,,,0.00,Wunderground v.1.15,2013-04-29 13:54:00,
2013-04-29 08:59:00,62.5,56.9,29.99,SE,138,7.0,10.0,82,0.00,,,0.00,Wunderground v.1.15,2013-04-29 13:59:00,
2013-04-29 09:04:00,62.9,56.3,30.00,West,279,5.0,11.0,79,0.00,,,0.00,Wunderground v.1.15,2013-04-29 14:04:00,
2013-04-29 09:09:00,63.1,56.8,30.00,SE,135,9.0,11.0,80,0.00,,,0.00,Wunderground v.1.15,2013-04-29 14:09:00,
2013-04-29 09:14:00,63.3,56.7,29.99,SSE,150,10.0,12.0,79,0.00,,,0.00,Wunderground v.1.15,2013-04-29 14:14:00,
2013-04-29 09:19:00,63.2,56.6,29.99,SE,130,7.0,12.0,79,0.00,,,0.00,Wunderground v.1.15,2013-04-29 14:19:00,
2013-04-29 09:24:00,63.5,56.9,29.99,SE,124,9.0,9.0,79,0.00,,,0.00,Wunderground v.1.15,2013-04-29 14:24:00,
2013-04-29 09:29:00,64.1,57.1,29.99,ESE,121,7.0,11.0,78,0.00,,,0.00,Wunderground v.1.15,2013-04-29 14:29:00,
2013-04-29 09:34:00,64.7,56.6,29.99,ESE,119,10.0,11.0,75,0.00,,,0.00,Wunderground v.1.15,2013-04-29 14:34:00,
2013-04-29 09:39:00,65.2,57.8,29.99,West,279,12.0,12.0,77,0.00,,,0.00,Wunderground v.1.15,2013-04-29 14:39:00,
2013-04-29 09:44:00,65.2,57.1,29.99,ESE,117,9.0,14.0,75,0.00,,,0.00,Wunderground v.1.15,2013-04-29 14:44:00,
2013-04-29 09:49:00,65.3,56.8,29.99,ESE,117,5.0,14.0,74,0.00,,,0.00,Wunderground v.1.15,2013-04-29 14:49:00,
2013-04-29 09:54:00,65.5,56.2,29.99,SE,129,4.0,11.0,72,0.00,,,0.00,Wunderground v.1.15,2013-04-29 14:54:00,
2013-04-29 09:59:00,65.6,56.7,29.99,SSE,149,10.0,13.0,73,0.00,,,0.00,Wunderground v.1.15,2013-04-29 14:59:00,
2013-04-29 10:04:00,65.3,56.8,29.99,SSE,149,14.0,14.0,74,0.00,,,0.00,Wunderground v.1.15,2013-04-29 15:04:00,
2013-04-29 10:09:00,65.4,56.1,29.99,West,279,10.0,14.0,72,0.00,,,0.00,Wunderground v.1.15,2013-04-29 15:09:00,
2013-04-29 10:14:00,65.8,57.7,29.99,SE,140,12.0,14.0,75,0.00,,,0.00,Wunderground v.1.15,2013-04-29 15:14:00,
2013-04-29 10:19:00,66.2,56.9,29.99,SE,128,13.0,14.0,72,0.00,,,0.00,Wunderground v.1.15,2013-04-29 15:19:00,
2013-04-29 10:24:00,66.4,56.3,29.98,SE,134,8.0,15.0,70,0.00,,,0.00,Wunderground v.1.15,2013-04-29 15:24:00,
2013-04-29 10:29:00,66.7,57.0,29.99,ESE,116,9.0,15.0,71,0.00,,,0.00,Wunderground v.1.15,2013-04-29 15:29:00,
2013-04-29 10:34:00,67.1,57.0,29.99,SE,128,11.0,13.0,70,0.00,,,0.00,Wunderground v.1.15,2013-04-29 15:34:00,
2013-04-29 10:39:00,67.5,57.0,29.99,SE,139,9.0,14.0,69,0.00,,,0.00,Wunderground v.1.15,2013-04-29 15:39:00,
2013-04-29 10:45:00,67.6,56.7,29.99,West,279,5.0,14.0,68,0.00,,,0.00,Wunderground v.1.15,2013-04-29 15:45:00,
2013-04-29 10:50:00,67.7,57.6,29.99,ESE,111,5.0,9.0,70,0.00,,,0.00,Wunderground v.1.15,2013-04-29 15:50:00,
2013-04-29 10:55:00,68.4,58.2,29.99,ESE,115,10.0,13.0,70,0.00,,,0.00,Wunderground v.1.15,2013-04-29 15:55:00,
2013-04-29 11:00:00,69.2,57.4,29.99,SE,126,11.0,11.0,66,0.00,,,0.00,Wunderground v.1.15,2013-04-29 16:00:00,
2013-04-29 11:05:00,69.3,56.6,29.99,SE,136,8.0,12.0,64,0.00,,,0.00,Wunderground v.1.15,2013-04-29 16:05:00,
2013-04-29 11:10:00,69.2,57.4,29.99,SE,144,11.0,11.0,66,0.00,,,0.00,Wunderground v.1.15,2013-04-29 16:10:00,
2013-04-29 11:15:00,69.4,57.1,29.99,South,176,6.0,13.0,65,0.00,,,0.00,Wunderground v.1.15,2013-04-29 16:15:00,
2013-04-29 11:20:00,69.4,58.0,29.99,ESE,117,8.0,11.0,67,0.00,,,0.00,Wunderground v.1.15,2013-04-29 16:20:00,
2013-04-29 11:25:00,69.5,57.2,29.98,SSE,155,13.0,16.0,65,0.00,,,0.00,Wunderground v.1.15,2013-04-29 16:25:00,
2013-04-29 11:30:00,69.3,57.5,29.99,SSE,148,12.0,13.0,66,0.00,,,0.00,Wunderground v.1.15,2013-04-29 16:30:00,
2013-04-29 11:35:00,69.1,57.3,29.99,SSE,158,14.0,15.0,66,0.00,,,0.00,Wunderground v.1.15,2013-04-29 16:35:00,
2013-04-29 11:40:00,68.8,57.0,29.99,SSE,155,2.0,10.0,66,0.00,,,0.00,Wunderground v.1.15,2013-04-29 16:40:00,
2013-04-29 11:45:00,68.5,56.7,29.98,South,178,10.0,16.0,66,0.00,,,0.00,Wunderground v.1.15,2013-04-29 16:45:00,
2013-04-29 11:50:00,68.3,57.3,29.98,West,279,15.0,15.0,68,0.00,,,0.00,Wunderground v.1.15,2013-04-29 16:50:00,
2013-04-29 11:55:00,68.6,57.2,29.98,South,173,7.0,16.0,67,0.00,,,0.00,Wunderground v.1.15,2013-04-29 16:55:00,
2013-04-29 12:00:00,68.9,57.1,29.98,West,279,5.0,10.0,66,0.00,,,0.00,Wunderground v.1.15,2013-04-29 17:00:00,
2013-04-29 12:05:00,68.7,57.3,29.98,West,279,14.0,17.0,67,0.00,,,0.00,Wunderground v.1.15,2013-04-29 17:05:00,
2013-04-29 12:10:00,69.1,56.4,29.98,SE,132,10.0,10.0,64,0.00,,,0.00,Wunderground v.1.15,2013-04-29 17:10:00,
2013-04-29 12:15:00,69.7,56.5,29.98,SE,138,4.0,19.0,63,0.00,,,0.00,Wunderground v.1.15,2013-04-29 17:15:00,
2013-04-29 12:20:00,69.8,56.6,29.97,South,175,12.0,15.0,63,0.00,,,0.00,Wunderground v.1.15,2013-04-29 17:20:00,
2013-04-29 12:25:00,70.0,57.7,29.97,West,279,10.0,17.0,65,0.00,,,0.00,Wunderground v.1.15,2013-04-29 17:25:00,
2013-04-29 12:30:00,70.4,56.8,29.97,SSE,166,16.0,16.0,62,0.00,,,0.00,Wunderground v.1.15,2013-04-29 17:30:00,
2013-04-29 12:35:00,70.0,56.8,29.97,South,176,10.0,16.0,63,0.00,,,0.00,Wunderground v.1.15,2013-04-29 17:35:00,
2013-04-29 12:40:00,69.7,57.0,29.97,West,279,7.0,11.0,64,0.00,,,0.00,Wunderground v.1.15,2013-04-29 17:40:00,
2013-04-29 12:45:00,69.9,57.6,29.97,South,172,10.0,13.0,65,0.00,,,0.00,Wunderground v.1.15,2013-04-29 17:45:00,
2013-04-29 12:50:00,70.2,57.9,29.97,South,185,14.0,14.0,65,0.00,,,0.00,Wunderground v.1.15,2013-04-29 17:50:00,
2013-04-29 12:55:00,71.0,58.6,29.97,SE,128,4.0,16.0,65,0.00,,,0.00,Wunderground v.1.15,2013-04-29 17:55:00,
2013-04-29 13:00:00,71.3,57.6,29.96,West,279,6.0,12.0,62,0.00,,,0.00,Wunderground v.1.15,2013-04-29 18:00:00,
2013-04-29 13:05:00,71.4,57.7,29.96,West,279,7.0,14.0,62,0.00,,,0.00,Wunderground v.1.15,2013-04-29 18:05:00,
2013-04-29 13:10:00,71.3,57.2,29.96,South,182,7.0,12.0,61,0.00,,,0.00,Wunderground v.1.15,2013-04-29 18:10:00,
2013-04-29 13:15:00,71.3,58.9,29.96,SSE,168,15.0,16.0,65,0.00,,,0.00,Wunderground v.1.15,2013-04-29 18:15:00,
2013-04-29 13:20:00,71.6,58.8,29.96,West,279,11.0,11.0,64,0.00,,,0.00,Wunderground v.1.15,2013-04-29 18:20:00,
2013-04-29 13:25:00,71.3,58.1,29.95,South,176,6.0,13.0,63,0.00,,,0.00,Wunderground v.1.15,2013-04-29 18:25:00,
2013-04-29 13:30:00,71.1,57.0,29.95,South,180,10.0,17.0,61,0.00,,,0.00,Wunderground v.1.15,2013-04-29 18:30:00,
2013-04-29 13:35:00,71.3,58.5,29.95,West,279,11.0,17.0,64,0.00,,,0.00,Wunderground v.1.15,2013-04-29 18:35:00,
2013-04-29 13:40:00,71.5,58.2,29.95,SSE,157,9.0,12.0,63,0.00,,,0.00,Wunderground v.1.15,2013-04-29 18:40:00,
2013-04-29 13:45:00,71.9,57.3,29.94,SSW,203,6.0,13.0,60,0.00,,,0.00,Wunderground v.1.15,2013-04-29 18:45:00,
2013-04-29 13:51:00,71.9,58.6,29.94,SSE,161,6.0,12.0,63,0.00,,,0.00,Wunderground v.1.15,2013-04-29 18:51:00,
2013-04-29 13:56:00,72.0,57.4,29.95,South,175,14.0,16.0,60,0.00,,,0.00,Wunderground v.1.15,2013-04-29 18:56:00,
2013-04-29 14:01:00,72.0,58.7,29.94,SSE,160,10.0,13.0,63,0.00,,,0.00,Wunderground v.1.15,2013-04-29 19:01:00,
2013-04-29 14:06:00,72.0,59.2,29.94,SSE,155,9.0,13.0,64,0.00,,,0.00,Wunderground v.1.15,2013-04-29 19:06:00,
2013-04-29 14:11:00,72.2,58.5,29.93,SSE,148,10.0,14.0,62,0.00,,,0.00,Wunderground v.1.15,2013-04-29 19:11:00,
2013-04-29 14:16:00,72.5,57.8,29.93,SSW,201,10.0,15.0,60,0.00,,,0.00,Wunderground v.1.15,2013-04-29 19:16:00,
2013-04-29 14:21:00,72.3,58.1,29.94,West,279,13.0,17.0,61,0.00,,,0.00,Wunderground v.1.15,2013-04-29 19:21:00,
2013-04-29 14:26:00,72.3,57.6,29.93,West,279,7.0,17.0,60,0.00,,,0.00,Wunderground v.1.15,2013-04-29 19:26:00,
2013-04-29 14:31:00,72.3,58.5,29.93,South,169,12.0,13.0,62,0.00,,,0.00,Wunderground v.1.15,2013-04-29 19:31:00,
2013-04-29 14:37:00,72.4,58.6,29.93,SSE,161,7.0,14.0,62,0.00,,,0.00,Wunderground v.1.15,2013-04-29 19:37:00,
2013-04-29 14:42:00,72.6,59.3,29.93,West,279,11.0,16.0,63,0.00,,,0.00,Wunderground v.1.15,2013-04-29 19:42:00,
2013-04-29 14:47:00,72.8,58.1,29.92,SE,144,9.0,16.0,60,0.00,,,0.00,Wunderground v.1.15,2013-04-29 19:47:00,
2013-04-29 14:52:00,72.6,57.9,29.92,SE,146,10.0,13.0,60,0.00,,,0.00,Wunderground v.1.15,2013-04-29 19:52:00,
2013-04-29 14:57:00,72.4,57.7,29.92,SE,138,7.0,13.0,60,0.00,,,0.00,Wunderground v.1.15,2013-04-29 19:57:00,
2013-04-29 15:02:00,72.3,57.6,29.92,ESE,121,11.0,14.0,60,0.00,,,0.00,Wunderground v.1.15,2013-04-29 20:02:00,
2013-04-29 15:07:00,72.4,60.0,29.91,SE,142,10.0,14.0,65,0.00,,,0.00,Wunderground v.1.15,2013-04-29 20:07:00,
2013-04-29 15:12:00,72.7,59.4,29.91,SE,130,9.0,15.0,63,0.00,,,0.00,Wunderground v.1.15,2013-04-29 20:12:00,
2013-04-29 15:17:00,73.0,58.8,29.91,SSE,149,5.0,15.0,61,0.00,,,0.00,Wunderground v.1.15,2013-04-29 20:17:00,
2013-04-29 15:22:00,73.3,59.5,29.91,SE,146,11.0,13.0,62,0.00,,,0.00,Wunderground v.1.15,2013-04-29 20:22:00,
2013-04-29 15:28:00,73.6,59.3,29.91,SSE,155,11.0,13.0,61,0.00,,,0.00,Wunderground v.1.15,2013-04-29 20:28:00,
2013-04-29 15:33:00,73.9,59.1,29.91,SSW,197,7.0,11.0,60,0.00,,,0.00,Wunderground v.1.15,2013-04-29 20:33:00,
2013-04-29 15:38:00,74.2,58.9,29.91,SSE,148,12.0,13.0,59,0.00,,,0.00,Wunderground v.1.15,2013-04-29 20:38:00,
2013-04-29 15:43:00,74.4,58.7,29.90,South,172,5.0,10.0,58,0.00,,,0.00,Wunderground v.1.15,2013-04-29 20:43:00,
2013-04-29 15:48:00,74.6,58.8,29.90,SSE,163,7.0,13.0,58,0.00,,,0.00,Wunderground v.1.15,2013-04-29 20:48:00,
2013-04-29 15:53:00,74.8,59.5,29.90,SE,127,5.0,8.0,59,0.00,,,0.00,Wunderground v.1.15,2013-04-29 20:53:00,
2013-04-29 15:58:00,75.3,59.5,29.90,West,279,10.0,12.0,58,0.00,,,0.00,Wunderground v.1.15,2013-04-29 20:58:00,
2013-04-29 16:03:00,75.3,58.5,29.89,SSE,162,13.0,16.0,56,0.00,,,0.00,Wunderground v.1.15,2013-04-29 21:03:00,
2013-04-29 16:08:00,75.1,59.3,29.89,South,185,6.0,16.0,58,0.00,,,0.00,Wunderground v.1.15,2013-04-29 21:08:00,
2013-04-29 16:13:00,75.0,58.7,29.89,South,173,9.0,11.0,57,0.00,,,0.00,Wunderground v.1.15,2013-04-29 21:13:00,
2013-04-29 16:18:00,74.9,58.6,29.89,East,87,3.0,14.0,57,0.00,,,0.00,Wunderground v.1.15,2013-04-29 21:18:00,
2013-04-29 16:23:00,75.1,58.8,29.89,South,170,10.0,12.0,57,0.00,,,0.00,Wunderground v.1.15,2013-04-29 21:23:00,
2013-04-29 16:28:00,75.4,59.1,29.88,West,279,12.0,14.0,57,0.00,,,0.00,Wunderground v.1.15,2013-04-29 21:28:00,
2013-04-29 16:33:00,75.8,60.4,29.88,SSE,155,10.0,13.0,59,0.00,,,0.00,Wunderground v.1.15,2013-04-29 21:33:00,
2013-04-29 16:38:00,76.3,60.4,29.88,SE,140,12.0,13.0,58,0.00,,,0.00,Wunderground v.1.15,2013-04-29 21:38:00,
2013-04-29 16:43:00,76.5,59.6,29.88,SE,136,7.0,15.0,56,0.00,,,0.00,Wunderground v.1.15,2013-04-29 21:43:00,
2013-04-29 16:48:00,76.7,59.8,29.88,SE,127,3.0,15.0,56,0.00,,,0.00,Wunderground v.1.15,2013-04-29 21:48:00,
2013-04-29 16:53:00,76.9,60.0,29.88,West,279,5.0,12.0,56,0.00,,,0.00,Wunderground v.1.15,2013-04-29 21:53:00,
2013-04-29 16:58:00,76.9,58.5,29.88,ESE,115,4.0,12.0,53,0.00,,,0.00,Wunderground v.1.15,2013-04-29 21:58:00,
2013-04-29 17:03:00,76.9,59.0,29.88,SE,135,11.0,13.0,54,0.00,,,0.00,Wunderground v.1.15,2013-04-29 22:03:00,
2013-04-29 17:08:00,76.7,57.7,29.88,SSE,153,7.0,13.0,52,0.00,,,0.00,Wunderground v.1.15,2013-04-29 22:08:00,
2013-04-29 17:13:00,76.6,59.2,29.88,South,175,8.0,11.0,55,0.00,,,0.00,Wunderground v.1.15,2013-04-29 22:13:00,
2013-04-29 17:18:00,76.6,60.2,29.88,SSE,151,6.0,15.0,57,0.00,,,0.00,Wunderground v.1.15,2013-04-29 22:18:00,
2013-04-29 17:23:00,76.7,58.8,29.88,West,279,9.0,11.0,54,0.00,,,0.00,Wunderground v.1.15,2013-04-29 22:23:00,
2013-04-29 17:28:00,76.4,58.0,29.88,ESE,122,7.0,12.0,53,0.00,,,0.00,Wunderground v.1.15,2013-04-29 22:28:00,
2013-04-29 17:33:00,76.2,58.3,29.88,ESE,119,9.0,11.0,54,0.00,,,0.00,Wunderground v.1.15,2013-04-29 22:33:00,
2013-04-29 17:38:00,76.3,58.4,29.88,SSE,158,6.0,12.0,54,0.00,,,0.00,Wunderground v.1.15,2013-04-29 22:38:00,
2013-04-29 17:43:00,76.1,58.2,29.88,SSE,158,11.0,12.0,54,0.00,,,0.00,Wunderground v.1.15,2013-04-29 22:43:00,
2013-04-29 17:48:00,76.1,58.2,29.88,West,279,7.0,12.0,54,0.00,,,0.00,Wunderground v.1.15,2013-04-29 22:48:00,
2013-04-29 17:54:00,76.2,58.9,29.88,SE,140,8.0,13.0,55,0.00,,,0.00,Wunderground v.1.15,2013-04-29 22:54:00,
2013-04-29 17:59:00,76.2,58.3,29.88,SSE,150,12.0,15.0,54,0.00,,,0.00,Wunderground v.1.15,2013-04-29 22:59:00,
2013-04-29 18:04:00,76.1,58.8,29.87,SE,132,10.0,12.0,55,0.00,,,0.00,Wunderground v.1.15,2013-04-29 23:04:00,
2013-04-29 18:09:00,75.9,59.1,29.87,SSE,149,6.0,12.0,56,0.00,,,0.00,Wunderground v.1.15,2013-04-29 23:09:00,
2013-04-29 18:14:00,75.5,58.2,29.88,SE,136,6.0,13.0,55,0.00,,,0.00,Wunderground v.1.15,2013-04-29 23:14:00,
2013-04-29 18:19:00,75.0,58.2,29.87,West,279,11.0,13.0,56,0.00,,,0.00,Wunderground v.1.15,2013-04-29 23:19:00,
2013-04-29 18:24:00,74.6,58.4,29.87,SE,140,13.0,16.0,57,0.00,,,0.00,Wunderground v.1.15,2013-04-29 23:24:00,
2013-04-29 18:29:00,74.1,57.9,29.87,SE,127,7.0,16.0,57,0.00,,,0.00,Wunderground v.1.15,2013-04-29 23:29:00,
2013-04-29 18:34:00,73.8,59.0,29.87,West,279,6.0,12.0,60,0.00,,,0.00,Wunderground v.1.15,2013-04-29 23:34:00,
2013-04-29 18:39:00,73.5,58.3,29.87,ESE,121,7.0,14.0,59,0.00,,,0.00,Wunderground v.1.15,2013-04-29 23:39:00,
2013-04-29 18:44:00,73.1,57.9,29.87,SE,137,13.0,14.0,59,0.00,,,0.00,Wunderground v.1.15,2013-04-29 23:44:00,
2013-04-29 18:49:00,72.8,57.6,29.87,SE,143,12.0,14.0,59,0.00,,,0.00,Wunderground v.1.15,2013-04-29 23:49:00,
2013-04-29 18:54:00,72.6,57.4,29.87,SE,130,8.0,13.0,59,0.00,,,0.00,Wunderground v.1.15,2013-04-29 23:54:00,
2013-04-29 18:59:00,72.2,57.5,29.87,SE,130,6.0,13.0,60,0.00,,,0.00,Wunderground v.1.15,2013-04-29 23:59:00,
2013-04-29 19:04:00,72.0,58.3,29.87,SE,133,7.0,11.0,62,0.00,,,0.00,Wunderground v.1.15,2013-04-30 00:04:00,
2013-04-29 19:09:00,71.7,58.9,29.86,West,279,9.0,11.0,64,0.00,,,0.00,Wunderground v.1.15,2013-04-30 00:09:00,
2013-04-29 19:14:00,71.2,59.3,29.86,SE,128,9.0,10.0,66,0.00,,,0.00,Wunderground v.1.15,2013-04-30 00:14:00,
2013-04-29 19:19:00,70.6,60.3,29.86,West,279,7.0,10.0,70,0.00,,,0.00,Wunderground v.1.15,2013-04-30 00:19:00,
2013-04-29 19:24:00,69.8,59.6,29.86,SE,124,6.0,11.0,70,0.00,,,0.00,Wunderground v.1.15,2013-04-30 00:24:00,
2013-04-29 19:29:00,69.1,60.1,29.86,SE,130,8.0,11.0,73,0.00,,,0.00,Wunderground v.1.15,2013-04-30 00:29:00,
2013-04-29 19:34:00,68.5,59.5,29.87,SE,129,9.0,10.0,73,0.00,,,0.00,Wunderground v.1.15,2013-04-30 00:34:00,
2013-04-29 19:39:00,67.8,58.8,29.87,West,279,9.0,10.0,73,0.00,,,0.00,Wunderground v.1.15,2013-04-30 00:39:00,
2013-04-29 19:44:00,67.3,59.8,29.87,West,279,7.0,9.0,77,0.00,,,0.00,Wunderground v.1.15,2013-04-30 00:44:00,
2013-04-29 19:49:00,66.8,59.0,29.87,SE,130,7.0,9.0,76,0.00,,,0.00,Wunderground v.1.15,2013-04-30 00:49:00,
2013-04-29 19:54:00,66.4,59.0,29.87,SE,132,7.0,9.0,77,0.00,,,0.00,Wunderground v.1.15,2013-04-30 00:54:00,
2013-04-29 19:59:00,66.0,58.9,29.87,SE,135,9.0,9.0,78,0.00,,,0.00,Wunderground v.1.15,2013-04-30 00:59:00,
2013-04-29 20:04:00,65.4,58.4,29.86,SE,133,10.0,10.0,78,0.00,,,0.00,Wunderground v.1.15,2013-04-30 01:04:00,
2013-04-29 20:09:00,64.7,58.0,29.87,SE,136,9.0,10.0,79,0.00,,,0.00,Wunderground v.1.15,2013-04-30 01:09:00,
2013-04-29 20:14:00,64.1,57.5,29.87,SE,139,10.0,10.0,79,0.00,,,0.00,Wunderground v.1.15,2013-04-30 01:14:00,
2013-04-29 20:19:00,63.5,57.9,29.87,SE,134,9.0,10.0,82,0.00,,,0.00,Wunderground v.1.15,2013-04-30 01:19:00,
2013-04-29 20:24:00,63.0,57.4,29.87,West,279,10.0,11.0,82,0.00,,,0.00,Wunderground v.1.15,2013-04-30 01:24:00,
2013-04-29 20:29:00,62.6,57.4,29.87,SE,135,12.0,12.0,83,0.00,,,0.00,Wunderground v.1.15,2013-04-30 01:29:00,
2013-04-29 20:34:00,62.3,57.4,29.88,SE,140,12.0,13.0,84,0.00,,,0.00,Wunderground v.1.15,2013-04-30 01:34:00,
2013-04-29 20:39:00,61.9,56.7,29.88,SE,140,12.0,13.0,83,0.00,,,0.00,Wunderground v.1.15,2013-04-30 01:39:00,
2013-04-29 20:44:00,61.4,56.5,29.88,West,279,12.0,12.0,84,0.00,,,0.00,Wunderground v.1.15,2013-04-30 01:44:00,
2013-04-29 20:49:00,61.1,56.6,29.88,SE,136,11.0,12.0,85,0.00,,,0.00,Wunderground v.1.15,2013-04-30 01:49:00,
2013-04-29 20:54:00,60.9,56.7,29.88,SE,139,11.0,12.0,86,0.00,,,0.00,Wunderground v.1.15,2013-04-30 01:54:00,
2013-04-29 20:59:00,60.5,56.3,29.88,SE,139,11.0,12.0,86,0.00,,,0.00,Wunderground v.1.15,2013-04-30 01:59:00,
2013-04-29 21:04:00,60.3,56.1,29.88,SE,142,11.0,12.0,86,0.00,,,0.00,Wunderground v.1.15,2013-04-30 02:04:00,
2013-04-29 21:09:00,60.1,56.2,29.89,SE,141,11.0,12.0,87,0.00,,,0.00,Wunderground v.1.15,2013-04-30 02:09:00,
2013-04-29 21:14:00,59.9,56.0,29.89,SE,142,12.0,12.0,87,0.00,,,0.00,Wunderground v.1.15,2013-04-30 02:14:00,
2013-04-29 21:19:00,59.7,55.8,29.89,West,279,12.0,12.0,87,0.00,,,0.00,Wunderground v.1.15,2013-04-30 02:19:00,
2013-04-29 21:24:00,59.6,56.0,29.89,SE,139,12.0,13.0,88,0.00,,,0.00,Wunderground v.1.15,2013-04-30 02:24:00,
2013-04-29 21:29:00,59.4,55.8,29.89,West,279,12.0,13.0,88,0.00,,,0.00,Wunderground v.1.15,2013-04-30 02:29:00,
2013-04-29 21:34:00,59.2,55.6,29.89,SE,142,13.0,13.0,88,0.00,,,0.00,Wunderground v.1.15,2013-04-30 02:34:00,
2013-04-29 21:39:00,59.1,55.5,29.89,SE,142,13.0,13.0,88,0.00,,,0.00,Wunderground v.1.15,2013-04-30 02:39:00,
2013-04-29 21:44:00,58.9,55.7,29.89,SE,145,12.0,13.0,89,0.00,,,0.00,Wunderground v.1.15,2013-04-30 02:44:00,
2013-04-29 21:49:00,58.7,55.5,29.90,SSE,149,14.0,14.0,89,0.00,,,0.00,Wunderground v.1.15,2013-04-30 02:49:00,
2013-04-29 21:54:00,58.6,55.4,29.90,SE,142,14.0,15.0,89,0.00,,,0.00,Wunderground v.1.15,2013-04-30 02:54:00,
2013-04-29 21:59:00,58.4,55.2,29.90,SE,146,14.0,15.0,89,0.00,,,0.00,Wunderground v.1.15,2013-04-30 02:59:00,
2013-04-29 22:04:00,58.2,55.0,29.89,West,279,15.0,16.0,89,0.00,,,0.00,Wunderground v.1.15,2013-04-30 03:04:00,
2013-04-29 22:09:00,58.1,54.9,29.89,SE,144,15.0,16.0,89,0.00,,,0.00,Wunderground v.1.15,2013-04-30 03:09:00,
2013-04-29 22:14:00,58.1,55.2,29.89,West,279,16.0,16.0,90,0.00,,,0.00,Wunderground v.1.15,2013-04-30 03:14:00,
2013-04-29 22:19:00,58.6,55.7,29.89,SSE,147,16.0,17.0,90,0.00,,,0.00,Wunderground v.1.15,2013-04-30 03:19:00,
2013-04-29 22:24:00,58.9,55.4,29.89,SSE,148,15.0,17.0,88,0.00,,,0.00,Wunderground v.1.15,2013-04-30 03:24:00,
2013-04-29 22:29:00,58.9,55.4,29.89,SE,133,13.0,17.0,88,0.00,,,0.00,Wunderground v.1.15,2013-04-30 03:29:00,
2013-04-29 22:34:00,58.6,55.1,29.89,SE,132,12.0,15.0,88,0.00,,,0.00,Wunderground v.1.15,2013-04-30 03:34:00,
2013-04-29 22:39:00,58.3,54.8,29.89,SE,138,13.0,15.0,88,0.00,,,0.00,Wunderground v.1.15,2013-04-30 03:39:00,
2013-04-29 22:44:00,58.1,54.9,29.89,SSE,148,14.0,15.0,89,0.00,,,0.00,Wunderground v.1.15,2013-04-30 03:44:00,
2013-04-29 22:49:00,57.9,54.7,29.90,SSE,149,13.0,15.0,89,0.00,,,0.00,Wunderground v.1.15,2013-04-30 03:49:00,
2013-04-29 22:54:00,57.7,54.5,29.89,SE,146,14.0,15.0,89,0.00,,,0.00,Wunderground v.1.15,2013-04-30 03:54:00,
2013-04-29 22:59:00,57.5,54.3,29.89,SSE,147,14.0,15.0,89,0.00,,,0.00,Wunderground v.1.15,2013-04-30 03:59:00,
2013-04-29 23:01:00,57.4,54.5,29.89,SSE,148,14.0,15.0,90,0.00,,,0.00,Wunderground v.1.15,2013-04-30 04:01:00,
2013-04-29 23:06:00,57.2,54.3,29.89,SSE,153,15.0,15.0,90,0.00,,,0.00,Wunderground v.1.15,2013-04-30 04:06:00,
2013-04-29 23:11:00,57.2,54.9,29.89,SSE,156,15.0,16.0,92,0.00,,,0.00,Wunderground v.1.15,2013-04-30 04:11:00,
2013-04-29 23:16:00,57.8,55.5,29.89,SSE,157,16.0,16.0,92,0.00,,,0.00,Wunderground v.1.15,2013-04-30 04:16:00,
2013-04-29 23:21:00,58.3,55.4,29.90,SSE,158,17.0,17.0,90,0.00,,,0.00,Wunderground v.1.15,2013-04-30 04:21:00,
2013-04-29 23:26:00,58.4,55.2,29.90,SSE,161,17.0,18.0,89,0.00,,,0.00,Wunderground v.1.15,2013-04-30 04:26:00,
2013-04-29 23:31:00,58.4,55.2,29.89,SSE,164,17.0,18.0,89,0.00,,,0.00,Wunderground v.1.15,2013-04-30 04:31:00,
2013-04-29 23:36:00,58.4,54.9,29.90,SSE,160,17.0,18.0,88,0.00,,,0.00,Wunderground v.1.15,2013-04-30 04:36:00,
2013-04-29 23:41:00,58.2,54.7,29.90,SSE,158,16.0,17.0,88,0.00,,,0.00,Wunderground v.1.15,2013-04-30 04:41:00,
2013-04-29 23:46:00,57.8,54.6,29.90,SE,140,10.0,17.0,89,0.00,,,0.00,Wunderground v.1.15,2013-04-30 04:46:00,
2013-04-29 23:52:00,57.4,53.9,29.89,SE,144,11.0,14.0,88,0.00,,,0.00,Wunderground v.1.15,2013-04-30 04:52:00,
2013-04-29 23:57:00,57.1,53.9,29.90,West,279,14.0,15.0,89,0.00,,,0.00,Wunderground v.1.15,2013-04-30 04:57:00,